MERAH PUTIH 2

Last updated on Sun Jun 21 2026 00:03:09 GMT+0000 (Coordinated Universal Time)

1 58995U 24035A 26170.84398836 .00000000 00000+0 00000+0 0 9993 2 58995 0.0162 1.6947 0001233 88.4357 234.7192 1.00268914 8612
UTC large
Height (km)
Speed (km/s)
/
Latitude / Longitude
Inclination (degrees)
Orbital Period (minutes)
Azimuth
Elevation
Range (km)
Doppler Factor

Next 0 passes for location: London (51.5072 / 0.1276)

No passes found over London.
MERAH PUTIH 2